CAPE
0 1 5 2 4 3 1 0 0 0 0 0 0 0 0 0 0 0 0 0 0 0 0 0 0 0 0 0 0 0 0 0 0 0 0 0 0 0 0 0 0 39 43 14 2
3 7 5 2 2 2 0 0 0 0 0 0 0 0 0 0 0 0 0 0 0 0 0 0 0 0 0 0 0 0 0 0 0 0 0 0 0 0 0 0 0 0 42 2 19
8 4 0 1 0 1 0 0 0 0 0 0 0 0 0 0 0 0 0 0 0 0 0 0 0 0 0 0 0 0 0 0 0 0 0 0 0 0 0 0 0 0 0 0 11
0 0 0 0 0 0 0 0 0 0 0 0 0 0 0 0 0 0 0 0 0 0 0 0 0 0 0 0 0 0 0 0 0 0 0 0 0 0 0 0 0 0 0 0 20
0 0 0 0 0 0 0 0 0 0 0 0 0 0 0 0 0 0 0 0 0 0 0 0 0 0 0 0 0 0 0 0 0 0 0 0 0 0 0 0 0 0 0 0 32
0 0 0 0 0 0 0 0 0 0 0 0 0 0 0 0 0 0 0 0 0 0 0 0 0 0 0 0 0 0 0 0 0 0 0 0 0 0 0 0 0 0 0 0 14
0 0 0 0 0 0 0 0 0 0 0 0 0 0 0 0 0 0 0 0 0 0 0 0 0 0 0 0 0 0 0 0 0 0 0 0 0 0 0 0 0 0 0 0 0
0 0 0 0 0 0 0 0 0 0 0 0 0 0 0 0 0 0 0 0 0 0 0 0 0 0 0 0 0 0 0 0 0 0 0 0 0 0 0 0 0 0 0 0 0
0 0 0 0 0 0 0 0 0 0 0 0 0 0 0 0 0 0 0 0 0 0 0 0 0 0 0 0 0 0 0 0 0 0 0 0 0 0 0 0 0 0 0 0 0
0 0 0 0 0 0 0 0 0 0 0 0 0 0 0 0 0 0 0 0 0 0 0 0 0 0 0 0 0 0 0 0 0 0 0 0 0 0 0 0 0 0 0 0 0
0 0 0 0 0 0 0 0 0 0 0 0 0 0 0 0 0 0 0 0 0 0 0 0 0 0 0 0 0 0 0 0 0 0 0 0 0 0 0 0 0 0 0 0 0
0 0 0 0 0 0 0 0 0 0 0 0 0 0 0 0 0 0 0 0 0 0 0 0 0 0 0 0 0 0 0 0 0 0 0 0 0 0 0 0 0 0 0 0 0
0 0 0 0 0 0 0 0 0 0 0 0 0 0 0 0 0 0 0 0 0 0 0 0 0 0 0 0 0 0 0 0 0 0 0 0 0 0 0 0 0 0 0 0 0
0 0 0 0 0 0 0 0 0 0 0 0 0 0 0 0 0 0 0 0 0 0 0 0 0 0 0 0 0 0 0 0 0 0 0 0 0 0 0 0 0 0 0 0 0
0 0 0 0 0 0 0 0 0 0 0 0 0 0 0 0 0 0 0 0 0 0 0 0 0 0 0 0 0 0 0 0 0 0 0 0 0 0 0 0 0 0 0 0 0
0 0 0 0 0 0 0 0 0 0 0 0 0 0 0 0 0 0 0 0 0 0 0 0 0 0 0 0 0 0 0 0 0 0 0 0 0 0 0 0 0 0 0 0 0
0 0 0 0 0 0 0 0 0 0 0 0 0 0 0 0 0 0 0 0 0 0 0 0 0 0 0 0 0 0 0 0 0 0 0 0 0 0 0 0 0 0 0 0 0
0 0 0 0 0 0 0 0 0 0 0 0 0 0 0 0 0 0 0 0 0 0 0 0 0 0 0 0 0 0 0 0 0 0 0 0 0 0 0 0 0 0 0 0 0
0 0 0 0 0 0 0 0 0 0 0 0 0 0 0 0 0 0 0 0 0 0 0 0 0 0 0 0 0 0 0 0 0 0 0 0 0 0 0 0 0 0 0 0 0
0 0 0 0 0 0 0 0 0 0 0 0 0 0 0 0 0 0 0 0 0 0 0 0 0 0 0 0 0 0 0 0 0 0 0 0 0 0 0 0 0 0 0 0 0
0 0 0 0 0 0 0 0 0 0 0 0 0 0 0 0 0 0 0 0 0 0 0 0 0 0 0 0 0 0 0 0 0 0 0 0 0 0 0 0 0 0 5 0 0
0 0 0 0 0 0 0 0 0 0 0 0 0 0 0 0 0 0 0 0 0 0 0 0 0 0 0 0 0 0 0 0 0 0 0 0 0 0 0 0 2 2 7 0 0
0 0 0 0 0 0 0 0 0 0 0 0 0 0 0 0 0 0 0 0 0 0 0 0 0 0 0 0 0 0 0 0 0 0 0 0 0 0 0 0 3 4 1 1 1
0 0 0 0 0 0 0 0 0 0 0 0 0 0 0 0 0 0 0 0 0 0 0 0 0 0 0 0 0 0 0 0 0 0 0 0 0 0 0 0 0 0 0 2 1
0 0 0 0 0 0 0 0 0 0 0 0 0 0 0 0 0 0 0 0 0 0 0 0 0 0 0 0 0 0 0 0 0 0 0 0 0 0 0 0 0 1 0 0 0
0 0 0 0 0 0 0 0 0 0 0 0 0 0 0 0 0 0 0 0 0 0 0 0 0 0 0 0 0 0 0 0 0 0 0 0 0 0 0 1 0 1 1 0 0
0 0 0 0 0 0 0 0 0 0 0 0 0 0 0 0 0 0 0 0 0 0 0 0 0 0 0 0 0 0 0 0 0 0 0 0 0 0 0 0 0 1 0 0 0
CIN
-0 -0 -0 -0 -0 -0 -0 -0 -0 -0 -0 -0 -0 -0 -0 -0 -0 -0 -0 -0 -0 -0 -0 -0 -0 -0 -0 -0 -0 -0 -0 -0 -0 -0 -0 -0 -0 -0 -0 -0 -0 -42 -61 -133 -105
-0 -0 -0 -0 -0 -0 -0 -0 -0 -0 -0 -0 -0 -0 -0 -0 -0 -0 -0 -0 -0 -0 -0 -0 -0 -0 -0 -0 -0 -0 -0 -0 -0 -0 -0 -0 -0 -0 -0 -0 -0 -0 -76 -103 -239
-0 -0 -0 -0 -0 -0 -0 -0 -0 -0 -0 -0 -0 -0 -0 -0 -0 -0 -0 -0 -0 -0 -0 -0 -0 -0 -0 -0 -0 -0 -0 -0 -0 -0 -0 -0 -0 -0 -0 -0 -0 -0 -0 -0 -170
-0 -0 -0 -0 -0 -0 -0 -0 -0 -0 -0 -0 -0 -0 -0 -0 -0 -0 -0 -0 -0 -0 -0 -0 -0 -0 -0 -0 -0 -0 -0 -0 -0 -0 -0 -0 -0 -0 -0 -0 -0 -0 -0 -0 -96
-0 -0 -0 -0 -0 -0 -0 -0 -0 -0 -0 -0 -0 -0 -0 -0 -0 -0 -0 -0 -0 -0 -0 -0 -0 -0 -0 -0 -0 -0 -0 -0 -0 -0 -0 -0 -0 -0 -0 -0 -0 -0 -0 -0 -63
-0 -0 -0 -0 -0 -0 -0 -0 -0 -0 -0 -0 -0 -0 -0 -0 -0 -0 -0 -0 -0 -0 -0 -0 -0 -0 -0 -0 -0 -0 -0 -0 -0 -0 -0 -0 -0 -0 -0 -0 -0 -0 -0 -0 -57
-0 -0 -0 -0 -0 -0 -0 -0 -0 -0 -0 -0 -0 -0 -0 -0 -0 -0 -0 -0 -0 -0 -0 -0 -0 -0 -0 -0 -0 -0 -0 -0 -0 -0 -0 -0 -0 -0 -0 -0 -0 -0 -0 -0 -0
-0 -0 -0 -0 -0 -0 -0 -0 -0 -0 -0 -0 -0 -0 -0 -0 -0 -0 -0 -0 -0 -0 -0 -0 -0 -0 -0 -0 -0 -0 -0 -0 -0 -0 -0 -0 -0 -0 -0 -0 -0 -0 -0 -0 -0
-0 -0 -0 -0 -0 -0 -0 -0 -0 -0 -0 -0 -0 -0 -0 -0 -0 -0 -0 -0 -0 -0 -0 -0 -0 -0 -0 -0 -0 -0 -0 -0 -0 -0 -0 -0 -0 -0 -0 -0 -0 -0 -0 -0 -0
-0 -0 -0 -0 -0 -0 -0 -0 -0 -0 -0 -0 -0 -0 -0 -0 -0 -0 -0 -0 -0 -0 -0 -0 -0 -0 -0 -0 -0 -0 -0 -0 -0 -0 -0 -0 -0 -0 -0 -0 -0 -0 -0 -0 -0
-0 -0 -0 -0 -0 -0 -0 -0 -0 -0 -0 -0 -0 -0 -0 -0 -0 -0 -0 -0 -0 -0 -0 -0 -0 -0 -0 -0 -0 -0 -0 -0 -0 -0 -0 -0 -0 -0 -0 -0 -0 -0 -0 -0 -0
-0 -0 -0 -0 -0 -0 -0 -0 -0 -0 -0 -0 -0 -0 -0 -0 -0 -0 -0 -0 -0 -0 -0 -0 -0 -0 -0 -0 -0 -0 -0 -0 -0 -0 -0 -0 -0 -0 -0 -0 -0 -0 -0 -0 -0
-0 -0 -0 -0 -0 -0 -0 -0 -0 -0 -0 -0 -0 -0 -0 -0 -0 -0 -0 -0 -0 -0 -0 -0 -0 -0 -0 -0 -0 -0 -0 -0 -0 -0 -0 -0 -0 -0 -0 -0 -0 -0 -0 -0 -0
-0 -0 -0 -0 -0 -0 -0 -0 -0 -0 -0 -0 -0 -0 -0 -0 -0 -0 -0 -0 -0 -0 -0 -0 -0 -0 -0 -0 -0 -0 -0 -0 -0 -0 -0 -0 -0 -0 -0 -0 -0 -0 -0 -0 -0
-0 -0 -0 -0 -0 -0 -0 -0 -0 -0 -0 -0 -0 -0 -0 -0 -0 -0 -0 -0 -0 -0 -0 -0 -0 -0 -0 -0 -0 -0 -0 -0 -0 -0 -0 -0 -0 -0 -0 -0 -0 -0 -0 -0 -0
-0 -0 -0 -0 -0 -0 -0 -0 -0 -0 -0 -0 -0 -0 -0 -0 -0 -0 -0 -0 -0 -0 -0 -0 -0 -0 -0 -0 -0 -0 -0 -0 -0 -0 -0 -0 -0 -0 -0 -0 -0 -0 -0 -0 -0
-0 -0 -0 -0 -0 -0 -0 -0 -0 -0 -0 -0 -0 -0 -0 -0 -0 -0 -0 -0 -0 -0 -0 -0 -0 -0 -0 -0 -0 -0 -0 -0 -0 -0 -0 -0 -0 -0 -0 -0 -0 -0 -0 -0 -0
-0 -0 -0 -0 -0 -0 -0 -0 -0 -0 -0 -0 -0 -0 -0 -0 -0 -0 -0 -0 -0 -0 -0 -0 -0 -0 -0 -0 -0 -0 -0 -0 -0 -0 -0 -0 -0 -0 -0 -0 -0 -0 -0 -0 -0
-0 -0 -0 -0 -0 -0 -0 -0 -0 -0 -0 -0 -0 -0 -0 -0 -0 -0 -0 -0 -0 -0 -0 -0 -0 -0 -0 -0 -0 -0 -0 -0 -0 -0 -0 -0 -0 -0 -0 -0 -0 -0 -0 -0 -0
-0 -0 -0 -0 -0 -0 -0 -0 -0 -0 -0 -0 -0 -0 -0 -0 -0 -0 -0 -0 -0 -0 -0 -0 -0 -0 -0 -0 -0 -0 -0 -0 -0 -0 -0 -0 -0 -0 -0 -0 -0 -0 -0 -0 -0
-0 -0 -0 -0 -0 -0 -0 -0 -0 -0 -0 -0 -0 -0 -0 -0 -0 -0 -0 -0 -0 -0 -0 -0 -0 -0 -0 -0 -0 -0 -0 -0 -0 -0 -0 -0 -0 -0 -0 -0 -0 -0 -0 -0 -0
-0 -0 -0 -0 -0 -0 -0 -0 -0 -0 -0 -0 -0 -0 -0 -0 -0 -0 -0 -0 -0 -0 -0 -0 -0 -0 -0 -0 -0 -0 -0 -0 -0 -0 -0 -0 -0 -0 -0 -0 -1 -0 -0 -0 -0
-0 -0 -0 -0 -0 -0 -0 -0 -0 -0 -0 -0 -0 -0 -0 -0 -0 -0 -0 -0 -0 -0 -0 -0 -0 -0 -0 -0 -0 -0 -0 -0 -0 -0 -0 -0 -0 -0 -0 -0 -0 -0 -0 -0 -0
-0 -0 -0 -0 -0 -0 -0 -0 -0 -0 -0 -0 -0 -0 -0 -0 -0 -0 -0 -0 -0 -0 -0 -0 -0 -0 -0 -0 -0 -0 -0 -0 -0 -0 -0 -0 -0 -0 -0 -0 -0 -0 -0 -0 -0
-0 -0 -0 -0 -0 -0 -0 -0 -0 -0 -0 -0 -0 -0 -0 -0 -0 -0 -0 -0 -0 -0 -0 -0 -0 -0 -0 -0 -0 -0 -0 -0 -0 -0 -0 -0 -0 -0 -0 -0 -0 -0 -0 -0 -0
-0 -0 -0 -0 -0 -0 -0 -0 -0 -0 -0 -0 -0 -0 -0 -0 -0 -0 -0 -0 -0 -0 -0 -0 -0 -0 -0 -0 -0 -0 -0 -0 -0 -0 -0 -0 -0 -0 -0 -0 -0 -0 -0 -0 -0
-0 -0 -0 -0 -0 -0 -0 -0 -0 -0 -0 -0 -0 -0 -0 -0 -0 -0 -0 -0 -0 -0 -0 -0 -0 -0 -0 -0 -0 -0 -0 -0 -0 -0 -0 -0 -0 -0 -0 -0 -0 -0 -0 -0 -0
Wind_Speed
22 23 25 25 26 24 24 26 25 22 20 18 16 13 11 11 8 24 23 19 23 26 27 26 22 23 16 14 14 14 20 27 29 30 30 28 30 28 30 30 28 25 27 26 12
23 24 25 25 24 23 24 24 22 20 19 17 15 14 14 11 19 28 24 25 26 27 27 26 22 21 13 13 13 11 19 23 23 23 27 29 34 35 34 36 32 31 28 25 11
24 24 24 23 23 23 23 21 20 20 18 17 17 16 12 15 18 21 21 26 28 29 28 19 19 17 15 16 19 21 26 29 30 31 34 35 35 30 35 39 32 32 32 26 16
24 24 23 22 22 21 20 19 19 18 17 16 18 17 19 19 21 17 17 30 30 29 29 24 22 19 19 19 22 26 25 27 32 35 38 40 37 35 32 34 37 37 35 28 24
23 23 22 21 20 19 19 19 20 18 17 16 17 17 21 24 24 15 22 31 27 28 30 27 27 23 21 22 26 25 29 36 37 39 40 42 44 42 43 43 45 42 38 33 26
23 21 19 18 19 18 20 21 20 19 18 18 19 20 23 24 18 24 29 29 28 28 28 28 25 22 21 23 24 26 31 33 32 36 38 40 46 40 37 38 42 41 39 35 30
20 18 18 17 18 19 21 21 20 19 19 20 21 20 26 25 22 24 26 26 22 25 27 25 24 26 24 25 25 26 31 31 24 35 36 41 47 39 39 37 42 43 41 41 40
20 19 19 18 19 20 21 20 19 18 21 22 21 19 22 21 20 29 31 29 26 25 24 24 24 24 27 26 28 29 26 38 31 36 33 36 48 45 39 42 47 45 44 43 42
22 21 21 21 22 23 22 21 20 21 21 21 18 19 23 23 27 29 29 28 26 28 25 23 24 27 30 34 30 31 41 41 39 36 36 36 53 42 49 51 51 50 49 46 47
22 21 21 23 24 26 24 19 20 22 19 18 21 19 26 26 24 28 31 26 25 29 25 28 29 30 35 38 41 41 41 38 45 38 44 47 57 52 50 52 55 53 50 49 49
21 21 20 22 24 26 21 18 20 20 23 20 20 22 24 26 21 33 32 25 26 30 32 29 33 38 37 34 33 39 41 45 45 41 44 48 56 56 55 51 51 51 50 51 49
20 19 19 21 22 24 20 19 19 17 19 20 20 23 22 24 25 35 34 29 30 33 35 31 33 31 34 34 38 39 42 46 42 40 48 51 58 50 41 35 37 39 39 42 45
19 18 18 20 19 21 20 20 18 15 17 20 21 24 25 25 25 32 34 29 30 33 35 31 31 33 36 39 39 38 42 44 50 51 48 46 46 43 36 29 24 26 28 30 33
17 17 18 20 17 18 20 20 18 15 18 22 23 23 24 23 24 27 30 29 30 32 33 29 28 34 37 36 36 43 34 40 45 49 51 36 44 37 26 30 26 28 28 30 32
15 16 17 16 15 18 18 19 17 16 22 20 21 22 24 24 26 30 28 27 29 32 29 33 32 36 37 35 35 38 35 37 41 39 37 31 31 35 32 27 30 30 31 32 33
13 14 15 16 16 16 18 18 17 20 21 20 21 25 22 26 27 29 30 30 23 28 27 27 26 28 32 32 34 31 36 35 27 27 31 28 29 30 27 28 32 32 34 35 38
12 13 15 15 15 16 17 18 20 20 20 21 22 23 22 27 26 31 31 34 35 38 42 35 30 28 29 38 29 33 33 33 27 29 30 28 32 28 30 29 30 36 40 41 42
10 14 15 15 15 15 17 19 21 19 19 19 20 21 23 29 25 30 28 31 32 32 36 41 42 33 30 31 29 26 25 28 30 34 40 30 24 29 25 27 34 39 43 45 45
9 14 14 16 17 15 17 20 19 18 17 18 20 21 23 25 26 28 29 28 28 31 37 37 34 28 28 24 19 21 21 8 13 15 24 17 9 13 23 36 44 48 48 48 46
12 15 17 17 17 16 17 19 17 16 16 18 20 20 25 26 26 28 27 24 26 26 28 30 37 26 27 21 13 9 5 13 15 24 30 7 6 9 29 42 47 49 49 48 46
14 16 16 17 15 16 18 17 16 14 16 18 18 21 21 25 24 25 24 24 24 26 28 29 27 29 28 20 21 5 6 12 7 6 4 10 9 19 38 47 48 50 50 48 50
15 19 17 14 14 16 16 15 14 13 14 17 18 19 20 21 22 23 23 22 23 25 31 27 28 31 25 5 9 4 7 7 3 4 6 7 9 15 30 38 48 49 48 50 48
16 17 16 13 17 15 14 15 14 14 14 15 17 18 18 20 23 20 21 21 22 25 29 26 28 34 27 19 22 2 2 3 5 5 7 5 8 23 26 28 33 46 51 48 44
17 20 18 15 17 13 12 15 15 13 14 15 16 16 18 19 16 21 21 21 23 24 24 21 24 21 20 6 22 15 11 11 4 6 8 9 20 27 29 37 37 41 41 39 37
19 22 18 17 18 13 12 13 12 14 14 12 16 12 16 19 19 18 19 22 23 24 23 23 25 18 5 23 20 14 13 11 7 7 6 13 19 25 32 32 26 28 27 34 37
24 23 20 19 17 10 14 13 11 12 11 15 12 12 9 15 16 19 19 21 24 23 25 22 23 19 11 18 16 17 8 3 4 5 6 11 18 23 25 21 28 29 21 38 27
25 21 19 18 17 12 18 14 8 8 14 16 10 13 9 7 12 16 16 19 20 21 24 22 20 19 15 19 17 10 4 2 4 3 6 13 18 23 25 20 21 20 20 9 9
Wind_Direction
352 342 339 338 332 318 320 324 318 310 302 297 293 281 250 254 312 353 348 303 301 303 307 310 332 319 334 329 322 320 300 291 288 286 283 290 284 284 287 282 284 285 283 287 283
345 335 335 332 319 314 319 318 308 301 299 295 292 288 270 246 64 4 331 318 317 318 327 337 350 343 356 344 332 312 301 299 301 305 299 297 286 285 282 279 280 283 287 289 268
339 335 329 319 313 314 314 306 303 302 299 299 297 294 277 80 62 47 312 321 326 331 344 19 9 9 358 342 326 314 298 300 296 297 296 289 292 295 284 275 279 281 285 288 270
341 331 321 313 311 310 302 299 301 298 297 298 305 300 36 59 31 52 299 329 354 356 4 11 9 3 351 336 327 310 308 307 302 297 292 287 289 287 284 282 280 280 284 287 270
338 320 310 304 303 299 297 301 301 295 292 296 311 310 44 31 34 54 334 345 16 12 7 9 3 0 351 342 329 318 312 303 301 299 295 289 283 282 279 280 274 278 279 279 274
322 307 300 293 297 296 302 306 302 299 294 301 312 346 34 19 52 28 17 16 18 14 13 14 9 5 359 347 338 331 321 315 310 304 299 292 285 284 282 284 277 276 277 277 275
296 288 287 287 291 298 304 300 298 296 308 320 326 30 22 23 37 29 23 19 28 16 13 16 14 7 358 350 347 337 325 323 322 315 305 299 285 282 287 284 279 275 276 274 271
298 291 292 288 292 303 300 294 287 289 324 354 357 32 22 34 36 15 9 8 17 19 17 13 15 6 2 353 347 339 336 320 322 316 312 307 283 284 289 287 277 276 275 272 272
307 306 302 314 317 308 299 296 314 358 3 8 19 20 14 18 12 11 13 7 7 9 16 19 14 4 359 350 345 343 324 322 319 321 312 306 287 289 289 284 277 276 274 272 269
315 316 325 338 336 321 321 357 6 13 5 18 16 15 9 5 15 11 9 12 12 4 6 3 1 356 353 349 337 332 328 323 316 317 309 300 289 292 291 284 277 275 274 272 269
319 323 335 344 341 334 356 3 359 358 6 14 12 14 7 6 19 3 9 11 10 7 358 359 354 350 349 348 343 333 326 320 316 318 310 303 294 294 290 285 279 277 274 272 271
322 327 334 341 342 348 1 4 7 11 6 9 13 11 15 9 10 357 3 7 4 360 357 357 354 356 352 347 340 335 328 321 319 319 312 305 294 297 295 294 289 283 283 280 276
321 326 330 333 348 352 4 5 8 17 7 2 8 8 8 5 8 359 0 3 2 359 357 357 354 355 350 345 341 338 329 326 318 315 311 307 299 299 298 298 302 305 298 295 293
322 323 328 328 344 344 348 1 6 15 353 347 357 3 4 3 3 5 6 5 2 359 359 358 358 354 350 348 346 337 339 332 325 318 309 314 296 300 299 301 303 304 304 303 300
322 320 328 343 349 338 350 356 11 7 340 355 360 2 1 8 359 358 7 6 3 0 3 356 355 354 352 350 347 337 338 334 327 320 321 318 301 299 297 294 300 302 301 305 306
319 319 328 328 338 348 351 360 2 347 341 351 1 360 5 360 359 358 2 7 12 7 7 359 360 1 356 354 349 349 346 342 345 339 326 324 316 296 300 300 301 303 302 302 304
309 315 320 328 336 345 357 351 341 341 351 350 355 1 3 357 359 359 2 2 1 356 356 0 2 2 3 355 5 359 360 354 349 341 330 338 315 301 304 306 306 305 304 302 302
310 311 319 327 341 347 348 341 334 343 346 358 359 1 359 356 360 360 3 2 8 7 358 357 357 3 6 3 3 9 19 9 347 340 318 343 323 319 337 325 315 309 307 304 300
306 303 314 320 324 338 340 331 336 345 355 356 358 359 355 358 0 2 3 5 8 11 2 358 357 2 3 10 21 23 21 41 18 14 355 20 32 8 356 321 317 313 308 304 301
290 296 301 315 321 330 329 329 338 351 356 356 354 357 352 355 359 1 4 10 9 13 11 2 351 4 5 20 52 59 59 33 37 17 350 22 320 357 350 312 312 310 310 307 303
284 293 306 311 322 321 320 328 337 346 350 351 354 352 355 357 1 2 6 10 14 9 8 3 1 357 4 18 14 71 59 47 50 52 21 293 325 16 335 314 310 309 309 306 303
278 286 303 308 308 318 321 334 344 346 348 346 351 353 356 3 2 3 6 9 12 9 3 7 1 355 0 266 208 121 60 55 53 10 331 326 326 30 308 307 311 309 313 309 305
273 286 301 302 296 301 322 327 335 339 342 348 348 353 3 3 360 5 9 13 10 8 5 7 3 357 8 14 324 189 191 63 338 357 341 328 321 311 320 323 309 313 316 313 306
271 278 285 292 295 308 314 319 323 336 341 346 350 359 2 3 9 5 6 11 10 5 8 12 4 2 359 308 270 261 257 274 360 352 356 317 313 321 329 318 314 315 314 315 314
267 272 277 286 277 290 304 316 319 326 332 346 349 357 3 2 4 7 9 6 9 11 14 10 360 5 338 256 249 244 258 268 293 319 4 327 330 339 325 318 316 316 313 321 329
253 265 269 279 286 276 292 299 306 318 329 334 344 0 11 3 7 3 7 7 5 14 12 13 7 13 262 259 253 264 229 250 305 308 333 346 336 346 344 330 322 326 8 349 328
258 263 269 272 275 275 282 297 307 318 319 326 348 356 0 358 4 4 8 6 6 9 13 17 23 25 247 273 268 200 133 61 18 318 18 359 338 344 359 345 338 341 44 346 341